^^
MeteoGriva-Weather Station Historical Data
Daily Summary for January 2, 2020 Units:  Metric    English   Both
Daily Weekly Monthly Yearly Custom
  High: Low: Average:
Temperature: 4.7 °C 2.5 °C 3.7 °C
Dew Point: 4.6 °C 0.8 °C 3.5 °C
Humidity: 100% 87.5% 99%
Wind Speed: 5km/h 0km/h 2km/h
Wind Gust: 7.9km/h - -
Wind- - NE
Pressure: 1023.4 hPa 1022.0 hPa -
Precipitation: 0.0 mm    
Historical Graphs
 
 
Tabular Data for January 2, 2020
Time Temperature Dew Point Pressure Wind Wind Speed Wind Gust Humidity Rainfall Rate (Hourly) solar
00:04 2.6 °C 0.8 °C 1022.0 hPa North 3.4 km/h 6.4 km/h 87.5% 0.0 mm 0 W/m2
00:09 2.6 °C 0.8 °C 1022.0 hPa NNW 1.9 km/h 6.4 km/h 88% 0.0 mm 0 W/m2
00:14 2.7 °C 0.8 °C 1022.0 hPa North 3.6 km/h 6.1 km/h 88% 0.0 mm 0 W/m2
00:19 2.7 °C 0.8 °C 1022.0 hPa North 4.7 km/h 6.1 km/h 88% 0.0 mm 0 W/m2
00:24 2.6 °C 1 °C 1022.4 hPa North 5 km/h 6.4 km/h 88.9% 0.0 mm 0 W/m2
00:29 2.6 °C 1 °C 1022.4 hPa NNE 4 km/h 6.4 km/h 89.5% 0.0 mm 0 W/m2
00:34 2.5 °C 1 °C 1022.4 hPa NNE 3.6 km/h 5.5 km/h 89.6% 0.0 mm 0 W/m2
00:39 2.6 °C 1 °C 1022.4 hPa NNE 2.8 km/h 4.7 km/h 89.1% 0.0 mm 0 W/m2
00:44 2.6 °C 1 °C 1022.0 hPa NE 2.8 km/h 4.7 km/h 89.4% 0.0 mm 0 W/m2
00:49 2.6 °C 1.1 °C 1022.0 hPa NNE 3.2 km/h 4.7 km/h 90% 0.0 mm 0 W/m2
00:54 2.6 °C 1.3 °C 1022.0 hPa NNE 3.7 km/h 5 km/h 91% 0.0 mm 0 W/m2
00:59 2.6 °C 1.3 °C 1022.0 hPa NNE 3.2 km/h 5.8 km/h 91.6% 0.0 mm 0 W/m2
01:04 2.6 °C 1.4 °C 1022.0 hPa NNE 3.1 km/h 5 km/h 92% 0.0 mm 0 W/m2
01:09 2.6 °C 1.5 °C 1022.0 hPa NNE 3.5 km/h 5 km/h 92.4% 0.0 mm 0 W/m2
01:14 2.7 °C 1.7 °C 1022.0 hPa NNE 2.4 km/h 4.3 km/h 93% 0.0 mm 0 W/m2
01:19 2.8 °C 1.8 °C 1022.0 hPa North 2.9 km/h 4.7 km/h 93.8% 0.0 mm 0 W/m2
01:24 2.8 °C 1.9 °C 1022.0 hPa NNE 3.8 km/h 5 km/h 94% 0.0 mm 0 W/m2
01:29 2.9 °C 2 °C 1022.0 hPa NNE 3.2 km/h 5.5 km/h 94% 0.0 mm 0 W/m2
01:34 2.8 °C 2 °C 1022.0 hPa North 3.3 km/h 4.7 km/h 94.2% 0.0 mm 0 W/m2
01:39 2.8 °C 2.2 °C 1022.0 hPa North 2.1 km/h 4.3 km/h 95% 0.0 mm 0 W/m2
01:44 2.9 °C 2.2 °C 1022.0 hPa NNE 2.8 km/h 4.3 km/h 95% 0.0 mm 0 W/m2
01:49 2.9 °C 2.2 °C 1022.0 hPa NE 2.7 km/h 4.3 km/h 95% 0.0 mm 0 W/m2
01:54 2.9 °C 2.2 °C 1022.0 hPa NNE 3.1 km/h 4 km/h 95% 0.0 mm 0 W/m2
01:59 2.9 °C 2.3 °C 1022.0 hPa NNE 3.8 km/h 5 km/h 95.6% 0.0 mm 0 W/m2
02:04 2.8 °C 2.2 °C 1022.0 hPa NNE 3.7 km/h 5.5 km/h 96% 0.0 mm 0 W/m2
02:09 2.8 °C 2.3 °C 1022.0 hPa NNE 2.3 km/h 4.7 km/h 96.6% 0.0 mm 0 W/m2
02:14 2.8 °C 2.4 °C 1022.0 hPa NNE 3.2 km/h 4.7 km/h 97% 0.0 mm 0 W/m2
02:19 2.8 °C 2.4 °C 1022.0 hPa NNE 3.4 km/h 5 km/h 97% 0.0 mm 0 W/m2
02:24 2.8 °C 2.4 °C 1022.0 hPa NNE 3.7 km/h 5.5 km/h 97.2% 0.0 mm 0 W/m2
02:29 2.7 °C 2.4 °C 1022.0 hPa NE 3 km/h 4.7 km/h 98% 0.0 mm 0 W/m2
02:34 2.7 °C 2.4 °C 1022.0 hPa NNE 3.2 km/h 4.3 km/h 98% 0.0 mm 0 W/m2
02:39 2.8 °C 2.5 °C 1022.0 hPa NNE 3.1 km/h 5.5 km/h 98% 0.0 mm 0 W/m2
02:44 2.8 °C 2.5 °C 1022.0 hPa NNE 3.1 km/h 4.7 km/h 98% 0.0 mm 0 W/m2
02:49 2.8 °C 2.5 °C 1022.0 hPa NNE 2.1 km/h 4.7 km/h 98% 0.0 mm 0 W/m2
02:54 2.8 °C 2.6 °C 1022.0 hPa NNE 3.4 km/h 4.3 km/h 98.2% 0.0 mm 0 W/m2
02:59 2.9 °C 2.6 °C 1022.0 hPa NNE 2.5 km/h 4 km/h 98.2% 0.0 mm 0 W/m2
03:04 2.9 °C 2.6 °C 1022.0 hPa NNE 2.6 km/h 4.3 km/h 98% 0.0 mm 0 W/m2
03:09 2.9 °C 2.7 °C 1022.0 hPa NNE 2.6 km/h 4.7 km/h 98.3% 0.0 mm 0 W/m2
03:14 2.9 °C 2.8 °C 1022.0 hPa NE 1.9 km/h 4.7 km/h 99% 0.0 mm 0 W/m2
03:19 2.9 °C 2.8 °C 1022.0 hPa NNE 1.7 km/h 4.3 km/h 99% 0.0 mm 0 W/m2
03:24 2.9 °C 2.8 °C 1022.0 hPa NNE 1.1 km/h 4.3 km/h 99% 0.0 mm 0 W/m2
03:29 2.9 °C 2.6 °C 1022.4 hPa NNE 2.3 km/h 3.2 km/h 98.1% 0.0 mm 0 W/m2
03:34 2.9 °C 2.7 °C 1022.4 hPa NNE 2.3 km/h 4.7 km/h 98.8% 0.0 mm 0 W/m2
03:39 2.9 °C 2.8 °C 1022.4 hPa NNE 2.5 km/h 4.7 km/h 99% 0.0 mm 0 W/m2
03:44 2.9 °C 2.8 °C 1022.4 hPa NNE 2.6 km/h 4.7 km/h 99% 0.0 mm 0 W/m2
03:49 2.9 °C 2.8 °C 1022.4 hPa NNE 2.3 km/h 4.7 km/h 99% 0.0 mm 0 W/m2
03:54 2.9 °C 2.8 °C 1022.0 hPa NNE 2.8 km/h 4.7 km/h 99% 0.0 mm 0 W/m2
03:59 2.9 °C 2.8 °C 1022.0 hPa NNE 2.5 km/h 4.7 km/h 99% 0.0 mm 0 W/m2
04:04 2.9 °C 2.8 °C 1022.0 hPa NNE 3.5 km/h 5.5 km/h 99% 0.0 mm 0 W/m2
04:09 2.9 °C 2.8 °C 1022.0 hPa North 3.6 km/h 6.1 km/h 99% 0.0 mm 0 W/m2
04:14 2.9 °C 2.8 °C 1022.0 hPa NNE 3.2 km/h 6.1 km/h 99% 0.0 mm 0 W/m2
04:19 2.9 °C 2.8 °C 1022.0 hPa North 4 km/h 6.1 km/h 99% 0.0 mm 0 W/m2
04:24 2.9 °C 2.8 °C 1022.0 hPa NNE 4.1 km/h 6.4 km/h 99% 0.0 mm 0 W/m2
04:29 2.9 °C 2.8 °C 1022.0 hPa North 3.9 km/h 7.9 km/h 99% 0.0 mm 0 W/m2
04:34 2.9 °C 2.9 °C 1022.0 hPa NNE 3.4 km/h 7.9 km/h 99.7% 0.0 mm 0 W/m2
04:39 2.9 °C 2.9 °C 1022.0 hPa NNE 3.3 km/h 5.8 km/h 99.8% 0.0 mm 0 W/m2
04:44 2.9 °C 2.9 °C 1022.0 hPa NNE 3.6 km/h 6.1 km/h 100% 0.0 mm 0 W/m2
04:49 2.9 °C 2.9 °C 1022.0 hPa North 3.3 km/h 6.1 km/h 100% 0.0 mm 0 W/m2
04:54 2.9 °C 2.9 °C 1022.0 hPa North 3.9 km/h 4.7 km/h 100% 0.0 mm 0 W/m2
04:59 2.8 °C 2.8 °C 1022.0 hPa NNE 3.2 km/h 5.8 km/h 100% 0.0 mm 0 W/m2
05:04 2.8 °C 2.8 °C 1022.0 hPa North 3.1 km/h 4.7 km/h 100% 0.0 mm 0 W/m2
05:09 2.8 °C 2.8 °C 1022.0 hPa NNE 4.5 km/h 6.1 km/h 100% 0.0 mm 0 W/m2
05:14 2.8 °C 2.8 °C 1022.0 hPa North 3.2 km/h 6.1 km/h 100% 0.0 mm 0 W/m2
05:19 2.8 °C 2.8 °C 1022.0 hPa North 3.7 km/h 6.1 km/h 100% 0.0 mm 0 W/m2
05:24 2.8 °C 2.8 °C 1022.0 hPa NNE 2.9 km/h 5.8 km/h 100% 0.0 mm 0 W/m2
05:29 2.8 °C 2.8 °C 1022.0 hPa North 2.5 km/h 4.7 km/h 100% 0.0 mm 0 W/m2
05:34 2.8 °C 2.8 °C 1022.0 hPa NNE 3.1 km/h 4.7 km/h 100% 0.0 mm 0 W/m2
05:39 2.8 °C 2.8 °C 1022.0 hPa North 2.5 km/h 4.7 km/h 100% 0.0 mm 0 W/m2
05:44 2.8 °C 2.8 °C 1022.0 hPa NNE 3.2 km/h 4.3 km/h 100% 0.0 mm 0 W/m2
05:49 2.8 °C 2.8 °C 1022.0 hPa North 2.6 km/h 4.7 km/h 100% 0.0 mm 0 W/m2
05:54 2.9 °C 2.9 °C 1022.4 hPa NNE 2.2 km/h 4.7 km/h 100% 0.0 mm 0 W/m2
05:59 2.9 °C 2.9 °C 1022.4 hPa NNE 0.5 km/h 2.9 km/h 100% 0.0 mm 0 W/m2
06:04 2.9 °C 2.8 °C 1022.4 hPa NNW 2 km/h 3.5 km/h 99.5% 0.0 mm 0 W/m2
06:09 2.9 °C 2.8 °C 1022.4 hPa NE 1.3 km/h 3.5 km/h 99% 0.0 mm 0 W/m2
06:14 2.9 °C 2.8 °C 1022.4 hPa North 2.4 km/h 3.5 km/h 99% 0.0 mm 0 W/m2
06:19 3 °C 2.9 °C 1022.4 hPa NNE 3.3 km/h 4.7 km/h 99% 0.0 mm 0 W/m2
06:24 3 °C 2.9 °C 1022.4 hPa NE 3 km/h 4.3 km/h 99% 0.0 mm 0 W/m2
06:29 3 °C 2.9 °C 1022.4 hPa NE 2.5 km/h 4.3 km/h 99% 0.0 mm 0 W/m2
06:34 3.1 °C 3 °C 1022.4 hPa NNE 2.7 km/h 4 km/h 99% 0.0 mm 0 W/m2
06:39 3.1 °C 3 °C 1022.4 hPa NE 3.2 km/h 4.7 km/h 99% 0.0 mm 0 W/m2
06:44 3.1 °C 3 °C 1022.4 hPa NE 2.5 km/h 4.7 km/h 98.8% 0.0 mm 0 W/m2
06:49 3.1 °C 3 °C 1022.4 hPa North 1.2 km/h 3.2 km/h 99% 0.0 mm 0 W/m2
06:54 3.2 °C 2.9 °C 1022.4 hPa SE 0.1 km/h 2.9 km/h 98.2% 0.0 mm 0 W/m2
06:59 3.2 °C 3 °C 1022.4 hPa Calm   2.9 km/h 98.4% 0.0 mm 0 W/m2
07:04 3.2 °C 2.9 °C 1022.4 hPa Calm     98% 0.0 mm 0 W/m2
07:09 3.2 °C 2.9 °C 1022.4 hPa Calm   1.8 km/h 98% 0.0 mm 0 W/m2
07:14 3.2 °C 2.9 °C 1022.7 hPa Calm     98% 0.0 mm 0 W/m2
07:19 3.2 °C 2.9 °C 1022.7 hPa Calm   2.9 km/h 98% 0.0 mm 0 W/m2
07:24 3.2 °C 2.8 °C 1022.7 hPa Calm     98% 0.0 mm 0 W/m2
07:29 3.1 °C 2.8 °C 1022.7 hPa Calm     98% 0.0 mm 0 W/m2
07:34 3.2 °C 2.8 °C 1022.7 hPa Calm   2.9 km/h 98% 0.0 mm 0 W/m2
07:39 3.2 °C 2.9 °C 1022.7 hPa ENE 0.8 km/h 2.9 km/h 98% 0.0 mm 0 W/m2
07:44 3.2 °C 2.9 °C 1022.7 hPa NE 0.9 km/h 4 km/h 98% 0.0 mm 0 W/m2
07:49 3.2 °C 2.8 °C 1022.7 hPa ENE 1.3 km/h 4 km/h 97.4% 0.0 mm 2 W/m2
07:54 3.2 °C 2.8 °C 1022.7 hPa NE 1.7 km/h 3.2 km/h 97% 0.0 mm 3 W/m2
07:59 3.2 °C 2.9 °C 1022.7 hPa North 1.6 km/h 4.7 km/h 97.8% 0.0 mm 3 W/m2
08:04 3.2 °C 3.1 °C 1022.7 hPa NNE 3.1 km/h 4.7 km/h 98.8% 0.0 mm 3 W/m2
08:09 3.2 °C 3.1 °C 1022.7 hPa NNE 2.6 km/h 3.5 km/h 99% 0.0 mm 5 W/m2
08:14 3.2 °C 3.1 °C 1022.7 hPa NNE 2.6 km/h 4 km/h 99% 0.0 mm 6 W/m2
08:19 3.2 °C 3.1 °C 1023.0 hPa NNE 3.5 km/h 4.7 km/h 99% 0.0 mm 6 W/m2
08:24 3.2 °C 3.1 °C 1023.0 hPa NNE 3.5 km/h 5 km/h 99% 0.0 mm 7 W/m2
08:29 3.2 °C 3.1 °C 1023.0 hPa North 3 km/h 4.7 km/h 99% 0.0 mm 8 W/m2
08:34 3.2 °C 3.1 °C 1023.0 hPa NNE 2 km/h 3.2 km/h 99% 0.0 mm 9 W/m2
08:39 3.2 °C 3.2 °C 1023.4 hPa North 2.4 km/h 4 km/h 99.4% 0.0 mm 19 W/m2
08:44 3.3 °C 3.2 °C 1023.4 hPa NE 1 km/h 4 km/h 99% 0.0 mm 10 W/m2
08:49 3.3 °C 3.1 °C 1023.4 hPa East 0.3 km/h 3.2 km/h 98.4% 0.0 mm 10 W/m2
08:54 3.3 °C 3.2 °C 1023.4 hPa Calm   2.9 km/h 99% 0.0 mm 11 W/m2
08:59 3.4 °C 3.3 °C 1023.4 hPa Calm     99% 0.0 mm 12 W/m2
09:04 3.4 °C 3.3 °C 1023.4 hPa East 0.6 km/h 3.5 km/h 99% 0.0 mm 15 W/m2
09:09 3.4 °C 3.3 °C 1023.4 hPa Calm   3.2 km/h 99% 0.0 mm 22 W/m2
09:14 3.4 °C 3.3 °C 1023.4 hPa ESE 0.4 km/h 3.5 km/h 99% 0.0 mm 18 W/m2
09:19 3.4 °C 3.3 °C 1023.4 hPa NNE 0.6 km/h 3.5 km/h 99% 0.0 mm 17 W/m2
09:24 3.4 °C 3.3 °C 1023.4 hPa NNE 2.6 km/h 4.7 km/h 99.4% 0.0 mm 17 W/m2
09:29 3.5 °C 3.4 °C 1023.4 hPa NNE 2.4 km/h 4.7 km/h 99.4% 0.0 mm 23 W/m2
09:34 3.5 °C 3.4 °C 1023.4 hPa NNE 2.2 km/h 4 km/h 99.2% 0.0 mm 29 W/m2
09:39 3.5 °C 3.5 °C 1023.4 hPa NNE 2.3 km/h 5 km/h 99.6% 0.0 mm 28 W/m2
09:44 3.5 °C 3.4 °C 1023.4 hPa NNE 1.9 km/h 3.5 km/h 99% 0.0 mm 33 W/m2
09:49 3.6 °C 3.5 °C 1023.4 hPa North 3 km/h 5 km/h 99% 0.0 mm 34 W/m2
09:54 3.6 °C 3.5 °C 1023.4 hPa NNE 3.5 km/h 6.4 km/h 99.4% 0.0 mm 33 W/m2
09:59 3.6 °C 3.6 °C 1023.4 hPa NNE 3.3 km/h 5.5 km/h 100% 0.0 mm 25 W/m2
10:04 3.5 °C 3.5 °C 1023.4 hPa NNE 3.4 km/h 6.4 km/h 100% 0.0 mm 24 W/m2
10:09 3.5 °C 3.5 °C 1023.4 hPa North 3.5 km/h 7.9 km/h 100% 0.0 mm 30 W/m2
10:14 3.5 °C 3.5 °C 1023.4 hPa North 3.5 km/h 6.1 km/h 99.6% 0.0 mm 59 W/m2
10:19 3.6 °C 3.6 °C 1023.4 hPa NNE 3.1 km/h 6.9 km/h 100% 0.0 mm 34 W/m2
10:24 3.6 °C 3.5 °C 1023.4 hPa NNE 2.8 km/h 4.7 km/h 99.4% 0.0 mm 28 W/m2
10:29 3.6 °C 3.6 °C 1023.4 hPa NNE 2.8 km/h 5.8 km/h 99.6% 0.0 mm 30 W/m2
10:34 3.6 °C 3.6 °C 1023.4 hPa ENE 3.1 km/h 5.8 km/h 100% 0.0 mm 26 W/m2
10:39 3.5 °C 3.5 °C 1023.4 hPa ESE 2.6 km/h 6.1 km/h 100% 0.0 mm 28 W/m2
10:44 3.5 °C 3.5 °C 1023.4 hPa ENE 1.3 km/h 6.1 km/h 100% 0.0 mm 30 W/m2
10:49 3.5 °C 3.5 °C 1023.4 hPa ENE 1.2 km/h 4 km/h 100% 0.0 mm 27 W/m2
10:54 3.5 °C 3.5 °C 1023.4 hPa East 0.3 km/h 3.2 km/h 100% 0.0 mm 32 W/m2
10:59 3.6 °C 3.6 °C 1023.4 hPa East 0.3 km/h 2.9 km/h 100% 0.0 mm 33 W/m2
11:04 3.6 °C 3.6 °C 1023.4 hPa Calm     99.8% 0.0 mm 35 W/m2
11:09 3.6 °C 3.5 °C 1023.4 hPa East 0.3 km/h 3.2 km/h 99.1% 0.0 mm 35 W/m2
11:14 3.6 °C 3.6 °C 1023.4 hPa ESE 0.8 km/h 4.3 km/h 99.9% 0.0 mm 32 W/m2
11:19 3.6 °C 3.6 °C 1023.4 hPa Calm   4 km/h 100% 0.0 mm 30 W/m2
11:24 3.6 °C 3.6 °C 1023.4 hPa Calm     99.5% 0.0 mm 36 W/m2
11:29 3.6 °C 3.6 °C 1023.4 hPa SE 0.1 km/h 3.5 km/h 99.5% 0.0 mm 42 W/m2
11:34 3.7 °C 3.7 °C 1023.4 hPa East 0.2 km/h 3.5 km/h 99.8% 0.0 mm 47 W/m2
11:39 3.8 °C 3.7 °C 1023.4 hPa Calm   2.9 km/h 99.4% 0.0 mm 48 W/m2
11:44 3.8 °C 3.5 °C 1023.4 hPa NE 1.1 km/h 3.2 km/h 98.2% 0.0 mm 40 W/m2
11:49 3.8 °C 3.7 °C 1023.4 hPa ENE 0.3 km/h 3.2 km/h 98.8% 0.0 mm 34 W/m2
11:54 3.9 °C 3.7 °C 1023.4 hPa Calm   3.2 km/h 98.8% 0.0 mm 38 W/m2
11:59 3.9 °C 3.8 °C 1023.0 hPa ENE 0.7 km/h 4 km/h 99% 0.0 mm 38 W/m2
12:04 3.9 °C 3.8 °C 1023.0 hPa NE 1.7 km/h 4.7 km/h 99.6% 0.0 mm 34 W/m2
12:09 3.9 °C 3.9 °C 1023.0 hPa NNE 2.6 km/h 4.7 km/h 99.8% 0.0 mm 33 W/m2
12:14 3.9 °C 3.9 °C 1023.0 hPa NNE 1.8 km/h 4.7 km/h 99.8% 0.0 mm 27 W/m2
12:19 3.9 °C 3.9 °C 1023.0 hPa NNE 2.9 km/h 4.7 km/h 100% 0.0 mm 26 W/m2
12:24 3.8 °C 3.8 °C 1022.7 hPa NE 0.8 km/h 3.2 km/h 100% 0.0 mm 25 W/m2
12:29 3.8 °C 3.8 °C 1022.7 hPa NNE 1.3 km/h 3.2 km/h 100% 0.0 mm 30 W/m2
12:34 3.9 °C 3.9 °C 1022.7 hPa NNE 2.5 km/h 4 km/h 100% 0.0 mm 29 W/m2
12:39 3.8 °C 3.8 °C 1022.7 hPa NE 2.4 km/h 4.3 km/h 100% 0.0 mm 25 W/m2
12:44 3.8 °C 3.8 °C 1022.7 hPa NE 2.6 km/h 4.7 km/h 100% 0.0 mm 25 W/m2
12:49 3.8 °C 3.8 °C 1022.7 hPa NNE 2.2 km/h 5 km/h 100% 0.0 mm 25 W/m2
12:54 3.8 °C 3.8 °C 1022.7 hPa East 0.9 km/h 4 km/h 100% 0.0 mm 22 W/m2
12:59 3.9 °C 3.9 °C 1022.4 hPa East 0.9 km/h 3.5 km/h 100% 0.0 mm 41 W/m2
13:04 3.9 °C 3.9 °C 1022.4 hPa NE 0.4 km/h 4.3 km/h 100% 0.0 mm 21 W/m2
13:09 3.9 °C 3.9 °C 1022.4 hPa NE 0.8 km/h 3.2 km/h 100% 0.0 mm 21 W/m2
13:14 3.9 °C 3.9 °C 1022.4 hPa NE 1.3 km/h 3.2 km/h 100% 0.0 mm 22 W/m2
13:19 3.9 °C 3.9 °C 1022.4 hPa NNE 2.7 km/h 4.3 km/h 100% 0.0 mm 24 W/m2
13:24 3.9 °C 3.9 °C 1022.4 hPa NNE 1.6 km/h 5 km/h 100% 0.0 mm 24 W/m2
13:29 3.9 °C 3.9 °C 1022.4 hPa NNE 2.5 km/h 5 km/h 100% 0.0 mm 27 W/m2
13:34 4 °C 4 °C 1022.4 hPa NNE 4 km/h 6.1 km/h 100% 0.0 mm 26 W/m2
13:39 4 °C 4 °C 1022.4 hPa NNE 2.1 km/h 6.1 km/h 100% 0.0 mm 26 W/m2
13:44 3.9 °C 3.9 °C 1022.4 hPa NNE 2.9 km/h 6.4 km/h 100% 0.0 mm 26 W/m2
13:49 3.9 °C 3.9 °C 1022.4 hPa NNE 3.1 km/h 6.4 km/h 100% 0.0 mm 28 W/m2
13:54 3.9 °C 3.9 °C 1022.4 hPa NE 2.8 km/h 4.7 km/h 100% 0.0 mm 27 W/m2
13:59 3.9 °C 3.9 °C 1022.4 hPa NE 2.8 km/h 4.7 km/h 100% 0.0 mm 27 W/m2
14:04 3.9 °C 3.9 °C 1022.4 hPa NNE 2.6 km/h 5.8 km/h 100% 0.0 mm 29 W/m2
14:09 3.9 °C 3.9 °C 1022.4 hPa North 3.7 km/h 5.8 km/h 100% 0.0 mm 29 W/m2
14:14 3.9 °C 3.9 °C 1022.4 hPa NNE 3.8 km/h 5 km/h 100% 0.0 mm 31 W/m2
14:19 3.9 °C 3.9 °C 1022.4 hPa NNE 3.8 km/h 5 km/h 100% 0.0 mm 29 W/m2
14:24 3.9 °C 3.9 °C 1022.4 hPa North 2.9 km/h 5 km/h 100% 0.0 mm 27 W/m2
14:29 3.9 °C 3.9 °C 1022.4 hPa North 2.4 km/h 5 km/h 100% 0.0 mm 23 W/m2
14:34 3.9 °C 3.9 °C 1022.4 hPa NNE 2.3 km/h 4 km/h 100% 0.0 mm 26 W/m2
14:39 3.9 °C 3.9 °C 1022.4 hPa North 1.9 km/h 4 km/h 100% 0.0 mm 23 W/m2
14:44 4 °C 4 °C 1022.4 hPa NNE 3.2 km/h 5 km/h 100% 0.0 mm 24 W/m2
14:49 3.9 °C 3.9 °C 1022.0 hPa NNE 2.3 km/h 4.7 km/h 100% 0.0 mm 23 W/m2
14:54 4 °C 4 °C 1022.0 hPa NNE 2.8 km/h 4.3 km/h 100% 0.0 mm 26 W/m2
14:59 4 °C 4 °C 1022.0 hPa NNE 2.8 km/h 4.7 km/h 100% 0.0 mm 28 W/m2
15:04 4 °C 4 °C 1022.0 hPa NNE 3.5 km/h 4.7 km/h 100% 0.0 mm 29 W/m2
15:09 4 °C 4 °C 1022.0 hPa NNE 2.7 km/h 4.7 km/h 100% 0.0 mm 29 W/m2
15:14 4 °C 4 °C 1022.0 hPa NNE 2.8 km/h 4.3 km/h 100% 0.0 mm 23 W/m2
15:19 4 °C 4 °C 1022.0 hPa North 2.5 km/h 4.3 km/h 100% 0.0 mm 23 W/m2
15:24 4 °C 4 °C 1022.4 hPa NNE 3 km/h 4.7 km/h 100% 0.0 mm 21 W/m2
15:29 4.1 °C 4.1 °C 1022.4 hPa NNE 2.4 km/h 4 km/h 100% 0.0 mm 21 W/m2
15:34 4.1 °C 4.1 °C 1022.4 hPa NNE 2.8 km/h 4.3 km/h 100% 0.0 mm 18 W/m2
15:39 4.1 °C 4.1 °C 1022.4 hPa NNE 2.4 km/h 4.3 km/h 100% 0.0 mm 17 W/m2
15:44 4.1 °C 4.1 °C 1022.4 hPa NNE 2.3 km/h 4.3 km/h 100% 0.0 mm 27 W/m2
15:49 4.1 °C 4.1 °C 1022.4 hPa NNE 2.1 km/h 3.2 km/h 100% 0.0 mm 17 W/m2
15:54 4.1 °C 4.1 °C 1022.4 hPa ENE 1 km/h 3.2 km/h 100% 0.0 mm 12 W/m2
15:59 4.1 °C 4.1 °C 1022.4 hPa NNE 1.9 km/h 3.2 km/h 100% 0.0 mm 11 W/m2
16:04 4.1 °C 4.1 °C 1022.4 hPa North 2.8 km/h 3.2 km/h 100% 0.0 mm 8 W/m2
16:09 4.2 °C 4.2 °C 1022.4 hPa NNE 2.2 km/h 3.5 km/h 100% 0.0 mm 7 W/m2
16:14 4.2 °C 4.2 °C 1022.4 hPa NE 2.8 km/h 4.3 km/h 99.8% 0.0 mm 7 W/m2
16:19 4.2 °C 4.2 °C 1022.4 hPa NE 3 km/h 4.7 km/h 99.8% 0.0 mm 6 W/m2
16:24 4.2 °C 4.2 °C 1022.4 hPa NE 2.2 km/h 4.7 km/h 99.6% 0.0 mm 5 W/m2
16:29 4.1 °C 4 °C 1022.4 hPa Calm   2.9 km/h 99.2% 0.0 mm 5 W/m2
16:34 4.2 °C 4.2 °C 1022.4 hPa NE 0.2 km/h 2.9 km/h 100% 0.0 mm 2 W/m2
16:39 4.2 °C 4.2 °C 1022.4 hPa Calm   2.9 km/h 100% 0.0 mm 2 W/m2
16:44 4.2 °C 4.2 °C 1022.4 hPa East 0.3 km/h 2.9 km/h 100% 0.0 mm 2 W/m2
16:49 4.3 °C 4.3 °C 1022.4 hPa Calm   2.9 km/h 100% 0.0 mm 0 W/m2
16:54 4.3 °C 4.3 °C 1022.0 hPa Calm   2.6 km/h 100% 0.0 mm 0 W/m2
16:59 4.3 °C 4.3 °C 1022.0 hPa NNE 1.7 km/h 3.2 km/h 100% 0.0 mm 0 W/m2
17:04 4.2 °C 4.2 °C 1022.0 hPa NNE 2.7 km/h 4 km/h 100% 0.0 mm 0 W/m2
17:09 4.2 °C 4.2 °C 1022.0 hPa NNE 2.8 km/h 4.3 km/h 100% 0.0 mm 0 W/m2
17:14 4.2 °C 4.2 °C 1022.4 hPa NE 0.3 km/h 3.5 km/h 100% 0.0 mm 0 W/m2
17:19 4.2 °C 4.2 °C 1022.4 hPa NNE 1.6 km/h 3.5 km/h 100% 0.0 mm 0 W/m2
17:24 4.2 °C 4.2 °C 1022.4 hPa NNE 1.5 km/h 3.5 km/h 100% 0.0 mm 0 W/m2
17:29 4.2 °C 4.2 °C 1022.4 hPa NE 0.6 km/h 2.9 km/h 100% 0.0 mm 0 W/m2
17:34 4.2 °C 4.2 °C 1022.4 hPa Calm     100% 0.0 mm 0 W/m2
17:39 4.3 °C 4.3 °C 1022.4 hPa East 0.3 km/h 2.9 km/h 100% 0.0 mm 0 W/m2
17:44 4.3 °C 4.3 °C 1022.4 hPa ESE 0.3 km/h 3.2 km/h 100% 0.0 mm 0 W/m2
17:49 4.3 °C 4.3 °C 1022.4 hPa Calm   2.1 km/h 100% 0.0 mm 0 W/m2
17:54 4.3 °C 4.3 °C 1022.4 hPa ESE 0.2 km/h 2.6 km/h 100% 0.0 mm 0 W/m2
17:59 4.3 °C 4.3 °C 1022.4 hPa ESE 0.3 km/h 2.9 km/h 100% 0.0 mm 0 W/m2
18:04 4.3 °C 4.3 °C 1022.4 hPa SE 0.2 km/h 2.9 km/h 100% 0.0 mm 0 W/m2
18:09 4.3 °C 4.3 °C 1022.4 hPa ESE 0.3 km/h 3.2 km/h 100% 0.0 mm 0 W/m2
18:14 4.4 °C 4.4 °C 1022.7 hPa South 1.1 km/h 4 km/h 100% 0.0 mm 0 W/m2
18:19 4.5 °C 4.5 °C 1022.7 hPa SSW 1 km/h 4.3 km/h 100% 0.0 mm 0 W/m2
18:24 4.5 °C 4.5 °C 1022.7 hPa Calm   4.3 km/h 100% 0.0 mm 0 W/m2
18:29 4.5 °C 4.5 °C 1022.7 hPa WNW 0.3 km/h 3.5 km/h 99.6% 0.0 mm 0 W/m2
18:34 4.6 °C 4.6 °C 1022.7 hPa Calm   3.5 km/h 100% 0.0 mm 0 W/m2
18:39 4.6 °C 4.5 °C 1022.7 hPa SW 0.3 km/h 4.3 km/h 99.3% 0.0 mm 0 W/m2
18:44 4.7 °C 4.6 °C 1022.7 hPa SSE 0.3 km/h 3.2 km/h 99% 0.0 mm 0 W/m2
18:49 4.7 °C 4.6 °C 1022.7 hPa Calm   3.2 km/h 99% 0.0 mm 0 W/m2
18:54 4.7 °C 4.6 °C 1022.7 hPa WSW 0.5 km/h 3.5 km/h 99% 0.0 mm 0 W/m2
18:59 4.7 °C 4.6 °C 1022.7 hPa Calm   2.9 km/h 98.8% 0.0 mm 0 W/m2
19:04 4.7 °C 4.4 °C 1022.7 hPa SE 0.9 km/h 4 km/h 98% 0.0 mm 0 W/m2
19:09 4.7 °C 4.5 °C 1022.7 hPa East 1 km/h 3.5 km/h 98.4% 0.0 mm 0 W/m2
19:14 4.7 °C 4.6 °C 1022.7 hPa ESE 1.3 km/h 4 km/h 99% 0.0 mm 0 W/m2
19:19 4.7 °C 4.6 °C 1023.0 hPa ESE 0.3 km/h 4 km/h 99.6% 0.0 mm 0 W/m2
19:24 4.6 °C 4.6 °C 1023.0 hPa SE 0.6 km/h 3.5 km/h 100% 0.0 mm 0 W/m2
19:29 4.6 °C 4.6 °C 1023.0 hPa ESE 0.2 km/h 3.2 km/h 100% 0.0 mm 0 W/m2
19:34 4.6 °C 4.6 °C 1023.0 hPa Calm   3.2 km/h 100% 0.0 mm 0 W/m2
19:39 4.6 °C 4.6 °C 1023.0 hPa SSE 0.2 km/h 2.6 km/h 100% 0.0 mm 0 W/m2
19:44 4.6 °C 4.6 °C 1023.0 hPa Calm   2.6 km/h 100% 0.0 mm 0 W/m2
19:49 4.6 °C 4.6 °C 1023.0 hPa Calm   2.6 km/h 100% 0.0 mm 0 W/m2
19:54 4.6 °C 4.5 °C 1023.0 hPa Calm     99.2% 0.0 mm 0 W/m2
19:59 4.5 °C 4.4 °C 1023.4 hPa Calm     99% 0.0 mm 0 W/m2
20:04 4.5 °C 4.4 °C 1023.4 hPa Calm     99% 0.0 mm 0 W/m2
20:09 4.5 °C 4.4 °C 1023.4 hPa SE 0.2 km/h 2.1 km/h 99% 0.0 mm 0 W/m2
20:14 4.5 °C 4.4 °C 1023.4 hPa Calm     99% 0.0 mm 0 W/m2
20:19 4.5 °C 4.4 °C 1023.0 hPa Calm     99.2% 0.0 mm 0 W/m2
20:24 4.6 °C 4.5 °C 1023.4 hPa Calm     99.2% 0.0 mm 0 W/m2
20:29 4.5 °C 4.4 °C 1023.4 hPa Calm     99% 0.0 mm 0 W/m2
20:34 4.5 °C 4.4 °C 1023.4 hPa North 1.1 km/h 4 km/h 99.2% 0.0 mm 0 W/m2
20:39 4.5 °C 4.5 °C 1023.4 hPa NNE 2.3 km/h 4 km/h 100% 0.0 mm 0 W/m2
20:44 4.5 °C 4.5 °C 1023.4 hPa NNE 1 km/h 3.5 km/h 100% 0.0 mm 0 W/m2
20:49 4.5 °C 4.5 °C 1023.4 hPa NE 1.4 km/h 3.2 km/h 100% 0.0 mm 0 W/m2
20:54 4.4 °C 4.4 °C 1023.4 hPa NE 1.3 km/h 3.2 km/h 100% 0.0 mm 0 W/m2
20:59 4.4 °C 4.4 °C 1023.4 hPa Calm     100% 0.0 mm 0 W/m2
21:04 4.4 °C 4.4 °C 1023.4 hPa Calm   3.2 km/h 100% 0.0 mm 0 W/m2
21:09 4.4 °C 4.4 °C 1023.4 hPa Calm   2.6 km/h 100% 0.0 mm 0 W/m2
21:14 4.4 °C 4.4 °C 1023.4 hPa SE 0.1 km/h 3.5 km/h 100% 0.0 mm 0 W/m2
21:19 4.4 °C 4.4 °C 1023.4 hPa Calm     100% 0.0 mm 0 W/m2
21:24 4.4 °C 4.4 °C 1023.4 hPa NNE 1.1 km/h 3.5 km/h 100% 0.0 mm 0 W/m2
21:29 4.4 °C 4.4 °C 1023.4 hPa North 3 km/h 4.3 km/h 100% 0.0 mm 0 W/m2
21:34 4.4 °C 4.4 °C 1023.4 hPa NNE 3.2 km/h 4.3 km/h 100% 0.0 mm 0 W/m2
21:39 4.4 °C 4.4 °C 1023.4 hPa North 3.5 km/h 5 km/h 100% 0.0 mm 0 W/m2
21:44 4.4 °C 4.4 °C 1023.4 hPa NNE 3 km/h 5 km/h 100% 0.0 mm 0 W/m2
21:49 4.4 °C 4.4 °C 1023.4 hPa North 3.7 km/h 5.5 km/h 100% 0.0 mm 0 W/m2
21:54 4.4 °C 4.4 °C 1023.4 hPa North 3.8 km/h 5.8 km/h 100% 0.0 mm 0 W/m2
21:59 4.3 °C 4.3 °C 1023.4 hPa North 4 km/h 6.1 km/h 100% 0.0 mm 0 W/m2
22:04 4.3 °C 4.3 °C 1023.4 hPa North 2.8 km/h 4.7 km/h 100% 0.0 mm 0 W/m2
22:09 4.4 °C 4.4 °C 1023.4 hPa North 3.9 km/h 5.8 km/h 100% 0.0 mm 0 W/m2
22:14 4.3 °C 4.3 °C 1023.4 hPa North 3.1 km/h 5.5 km/h 100% 0.0 mm 0 W/m2
22:19 4.4 °C 4.4 °C 1023.4 hPa North 2.9 km/h 6.1 km/h 100% 0.0 mm 0 W/m2
22:24 4.3 °C 4.3 °C 1023.4 hPa NNE 2.6 km/h 5.8 km/h 100% 0.0 mm 0 W/m2
22:29 4.3 °C 4.3 °C 1023.4 hPa North 2.9 km/h 4.7 km/h 100% 0.0 mm 0 W/m2
22:34 4.3 °C 4.3 °C 1023.4 hPa North 3.8 km/h 5.8 km/h 100% 0.0 mm 0 W/m2
22:39 4.3 °C 4.3 °C 1023.4 hPa North 3.7 km/h 5.5 km/h 100% 0.0 mm 0 W/m2
22:44 4.3 °C 4.3 °C 1023.4 hPa North 3.4 km/h 5.5 km/h 100% 0.0 mm 0 W/m2
22:49 4.3 °C 4.3 °C 1023.4 hPa North 2.5 km/h 4.7 km/h 100% 0.0 mm 0 W/m2
22:54 4.4 °C 4.4 °C 1023.4 hPa North 3.1 km/h 5.8 km/h 100% 0.0 mm 0 W/m2
22:59 4.4 °C 4.4 °C 1023.4 hPa NNE 3.6 km/h 5.8 km/h 100% 0.0 mm 0 W/m2
23:04 4.4 °C 4.4 °C 1023.4 hPa NNE 3.2 km/h 5.8 km/h 100% 0.0 mm 0 W/m2
23:09 4.4 °C 4.4 °C 1023.4 hPa NNE 2.4 km/h 4.3 km/h 100% 0.0 mm 0 W/m2
23:14 4.4 °C 4.4 °C 1023.4 hPa NNE 2.9 km/h 4.3 km/h 100% 0.0 mm 0 W/m2
23:19 4.4 °C 4.4 °C 1023.4 hPa NNE 2.2 km/h 3.5 km/h 100% 0.0 mm 0 W/m2
23:24 4.4 °C 4.4 °C 1023.4 hPa NE 2.2 km/h 3.5 km/h 100% 0.0 mm 0 W/m2
23:29 4.4 °C 4.4 °C 1023.4 hPa NE 2.4 km/h 3.5 km/h 100% 0.0 mm 0 W/m2
23:34 4.4 °C 4.4 °C 1023.4 hPa NE 2.7 km/h 4.3 km/h 100% 0.0 mm 0 W/m2
23:39 4.4 °C 4.4 °C 1023.4 hPa NE 2 km/h 3.5 km/h 100% 0.0 mm 0 W/m2
23:44 4.4 °C 4.4 °C 1023.4 hPa NNE 1.7 km/h 3.2 km/h 100% 0.0 mm 0 W/m2
23:49 4.4 °C 4.4 °C 1023.4 hPa NNE 2 km/h 3.2 km/h 100% 0.0 mm 0 W/m2
23:54 4.4 °C 4.4 °C 1023.4 hPa North 1.6 km/h 3.5 km/h 100% 0.0 mm 0 W/m2
23:59 4.4 °C 4.4 °C 1023.4 hPa NNE 1.8 km/h 3.5 km/h 100% 0.0 mm 0 W/m2
Juneau County Weather
Compliments of Weather Underground - 2 mb